Weather in Morgaushi

Russia / Chuvash Republic     55°57′55″N   46°46′17″E
temp.,
°C
wind,
m/s
gust,
m/s
humid.,
%
clouds,
%
prec.,
mm/h
press.,
hPa
HPBL,
m
14 april, wed
wed1400:00+7s466820 0.0 103058
03:00+6s446977 0.0 102937
06:00+5s367912 0.0 102962
09:00+11sse47685 0.0 1028178
12:00+16sse57535 0.0 1026543
15:00+18sse57486 0.0 1025876
18:00+14sse49750 0.0 1023171
21:00+11sse48895 0.0 1023126
15 april, thu
thu1500:00+10s48915 0.0 1022118
03:00+9s34911 0.0 102254
06:00+9sse35920 0.0 102184
09:00+14s34732 0.0 1020377
12:00+17ssw226242 0.2 10191102
15:00+17wsw446181 1.4 1018774
18:00+15w227195 0.9 101837
21:00+11nne7119171 1.5 1020386
16 april, fri
fri1600:00+9ne71191100 0.0 1021474
03:00+7ne71291100 0.1 1022470
06:00+5ne71292100 0.8 1023474
09:00+5ne61190100 2.1 1024509
12:00+8ene5108097 0.8 1025691
15:00+11ene686775 0.8 1025894
18:00+9ene47687 0.0 1025197
21:00+5ne512725 0.0 1027258
17 april, sat
sat1700:00+3ne411745 0.0 1028236
03:00+1ne411782 0.0 1028203
06:00+1ne410761 0.0 1030248
09:00+7ene58515 0.0 1030664
12:00+10ene56395 0.0 10291273
15:00+11ne56374 0.0 10291526
18:00+9ne37530 0.0 1029162
21:00+6ne33641 0.0 102925
18 april, sun
sun1800:00+4nne33714 0.0 103027
03:00+3ne36805 0.0 103091
06:00+3ne378016 0.0 1031162
09:00+8ne465746 0.0 1031680
12:00+11ne454749 0.0 10301574
15:00+11ne5646100 0.0 10301710
18:00+8ne586083 0.0 1031541
21:00+5ene4107271 0.0 1033302